AirNav   Air Wisconsin Up To $57,000 Bonus
 
 1429 users online  

22FA Hidden River Airport
Sarasota, Florida, USA

GOING TO SARASOTA?


FAA INFORMATION EFFECTIVE 07 NOVEMBER 2019

Location

FAA Identifier: 22FA
Lat/Long: 27-18-11.1690N 082-16-21.3280W
27-18.186150N 082-16.355467W
27.3031025,-82.2725911
(estimated)
Elevation: 47 ft. / 14.3 m (surveyed)
Variation: 02W (1985)
From city: 14 miles E of SARASOTA, FL
Time zone: UTC -5 (UTC -4 during Daylight Saving Time)
Zip code: 34240

Airport Operations

Airport use: Private use. Permission required prior to landing
Control tower: no
ARTCC: MIAMI CENTER
FSS: SAINT PETERSBURG FLIGHT SERVICE STATION
Attendance: UNATNDD
Wind indicator: yes
Segmented circle: no
Lights: ACTVT LIRL RY 09/27 - 122.9.

Airport Communications

WX ASOS at SRQ (16 nm W): 124.375 (941-355-8482)
WX AWOS-3 at VNC (17 nm SW): 119.275 (941-486-2718)

Nearby radio navigation aids

VOR radial/distance  VOR name  Freq  Var
SRQr117/16.7SARASOTA VOR/DME117.0005W
PGDr333/(27.6)PUNTA GORDA VOR110.2006W

Airport Services

Airframe service: NONE
Powerplant service: NONE

Runway Information

Runway 9/27

Dimensions: 2525 x 50 ft. / 770 x 15 m
Surface: asphalt
Runway edge lights: low intensity
RUNWAY 9  RUNWAY 27
Traffic pattern: leftleft
Obstructions: road, 300 ft. from runwaytrees, 850 ft. from runway

Airport Ownership and Management from official FAA records

Ownership: Privately-owned
Owner: HIDDEN RIVER ASSOCIATION, INC
3468 HIDDEN RIVER ROAD
SARASOTA, FL 34240
Phone 941-2098785
Manager: DONALD MARTENEY
3776 HIDDEN RIVER RD
SARASOTA, FL 34240
Phone (941) 322-8033

Airport Operational Statistics

Aircraft based on the field: 35
Single engine airplanes: 30
Multi engine airplanes: 4
Ultralights: 1
    

Additional Remarks

FOR CD CTC TAMPA APCH AT 813-878-2528

Instrument Procedures

There are no published instrument procedures at 22FA.

Some nearby airports with instrument procedures:

KSRQ - Sarasota/Bradenton International Airport (16 nm W)
KVNC - Venice Municipal Airport (17 nm SW)
X06 - Arcadia Municipal Airport (24 nm E)
KCHN - Wauchula Municipal Airport (24 nm NE)
KPGD - Punta Gorda Airport (28 nm SE)
 
Loc | Ops | Rwys | IFR | FBO | Links
Com | Nav | Svcs | Stats | Notes

Reliance Aviation
AirBoss

 
Area around 22FA (Hidden River Airport)
 
Road maps at: MapQuest Bing Google
 
Aerial photo
WARNING: Photo may not be current or correct
Aerial photo of 22FA (Hidden River Airport)
Photo courtesy of PhotosFromTheAir.com
Photo taken 20-Oct-2012

Do you have a better or more recent aerial photo of Hidden River Airport that you would like to share? If so, please send us your photo.

 
Sectional chart

 
Airport distance calculator
Flying to Hidden River Airport? Find the distance to fly.

From to 22FA

Sunrise and sunset
Times for 13-Nov-2019
 Local
(UTC-5)
 Zulu
(UTC)
Morning civil twilight06:2511:25
Sunrise06:4911:49
Sunset17:3822:38
Evening civil twilight18:0223:02

Current date and time
Zulu (UTC)  13-Nov-2019 20:29:00
Local (UTC-5)  13-Nov-2019 15:29:00
 
METAR
KVNC 
17nm SW 
132015Z AUTO 05012G20KT 4SM HZ OVC028 23/17 A3003 RMK AO2
KSRQ 
17nm W 
131953Z 07012KT 10SM OVC028 22/14 A3002 RMK AO2 SLP166 T02220144
KPGD 
27nm SE 
131953Z 04013KT 10SM OVC028 23/17 A3003 RMK AO2 SLP169 T02280167
TAF
KSRQ 
17nm W 
131720Z 1318/1418 06012G17KT P6SM BKN040 FM140600 06009KT P6SM BKN050 OVC080 FM141200 08009KT P6SM BKN050 OVC100
NOTAMs
Click for the latest NOTAMs
NOTAMs are issued by the DoD/FAA and will open in a separate window not controlled by AirNav.

 

 
 

Would you like to see your business listed on this page?

 If your business provides an interesting product or service to pilots, flight crews, aircraft, or users of the Hidden River Airport, you should consider listing it here.  To start the listing process, click on the button below
 
Add a business
 

Other Pages about Hidden River Airport

www.hiddenriver.org
 
Update a link
 
Copyright © AirNav, LLC. All rights reserved. Privacy Policy  Contact